Theta_e
312 317 318 318 321 321 324 324 325 326 326 325 323 324 325 325 325 325 328 328 326 324 325 322 322 320 322 324 325 323 318 325 327 327 328 326 328 326 330 329 332 332 332 333 331 330 332 331 331 330 331 330 331 334 335 335 335 335 338 338 336 334 336 338 337 334 329 326 330 327 329 328 326 327 326 326 326 328 329 329 329 327 326 327 327
312 317 317 318 318 321 323 323 325 323 324 326 325 325 326 327 326 327 327 327 332 328 324 330 323 324 325 321 323 318 317 322 321 324 327 328 330 330 332 333 331 331 334 334 335 332 331 332 332 331 329 329 330 329 331 333 333 333 335 332 336 335 333 336 338 334 327 325 323 322 324 328 329 328 325 325 325 326 328 328 328 327 325 326 328
313 315 320 317 318 320 320 322 324 325 325 325 326 326 327 325 327 328 326 327 330 327 327 323 325 327 326 325 323 322 323 329 324 325 328 324 330 330 327 325 325 324 327 330 330 330 330 330 331 332 332 332 330 329 328 329 331 331 333 331 332 333 333 336 335 334 329 329 326 322 318 317 322 324 327 325 325 325 326 327 327 326 326 325 328
311 314 315 316 317 319 319 322 323 325 324 325 325 325 325 325 327 328 326 326 324 327 326 325 326 328 331 331 327 328 323 327 329 327 327 326 327 327 324 328 327 325 324 322 325 327 332 333 331 331 330 332 333 330 330 329 330 331 332 331 331 328 330 331 335 335 332 331 322 320 319 319 314 317 320 324 326 326 326 326 326 326 325 325 324
312 313 315 316 316 317 318 320 323 323 324 323 325 325 325 325 326 327 326 326 323 326 323 325 325 328 328 328 329 328 328 325 323 321 324 324 326 325 325 324 325 326 324 323 323 325 326 326 326 329 330 331 329 329 330 330 331 332 332 331 330 327 326 329 332 333 332 332 327 324 319 315 315 319 320 321 325 324 325 326 325 325 324 324 324
320 315 315 317 317 318 319 319 321 322 324 324 325 325 325 325 326 327 325 326 322 323 325 324 324 327 324 324 321 321 320 319 319 319 322 322 321 327 327 325 325 326 326 325 322 323 327 327 328 326 326 328 329 329 329 330 329 327 330 332 331 331 328 328 329 335 333 333 332 328 326 321 322 323 321 316 324 325 325 325 325 326 325 324 324
313 314 315 315 318 318 318 318 319 320 323 327 326 326 326 325 326 327 325 325 321 322 324 325 325 324 324 323 323 326 322 319 324 325 327 325 324 326 326 328 323 324 325 326 326 325 324 327 326 327 324 326 326 326 326 327 329 330 329 331 332 331 331 327 327 329 332 331 330 328 327 327 326 322 317 319 317 322 324 324 324 325 325 324 324
312 313 315 317 318 318 318 319 319 320 323 325 326 326 325 325 326 326 325 324 322 323 322 325 322 323 322 323 323 322 323 319 322 323 326 326 325 325 326 328 327 325 325 323 325 326 325 324 325 326 325 322 323 322 323 325 328 330 332 332 333 332 331 329 328 329 326 325 328 328 329 329 328 326 324 319 317 318 319 325 326 325 324 325 325
312 313 315 318 317 317 318 320 320 321 323 323 325 326 326 326 326 327 326 324 323 322 321 322 324 322 322 321 321 321 321 321 320 320 322 322 323 324 325 323 324 325 325 324 324 325 325 324 324 322 322 323 321 321 322 323 324 324 328 331 331 331 331 331 329 328 328 326 326 326 327 327 327 327 326 323 317 317 319 320 321 325 326 327 326
311 312 314 317 319 318 319 321 320 321 323 325 326 327 327 326 326 326 325 323 323 321 321 322 324 322 321 321 320 320 319 320 321 319 322 321 322 322 324 322 325 323 324 324 324 323 323 324 323 323 322 321 323 320 321 321 321 322 323 325 328 331 331 330 329 329 329 328 327 327 325 326 325 325 324 323 319 319 317 318 323 321 321 323 327
309 311 313 317 321 319 319 319 319 322 324 323 325 326 328 326 326 325 325 323 322 321 321 319 323 320 320 321 320 320 320 320 321 317 321 320 320 320 322 323 326 327 326 323 322 323 322 323 322 322 322 322 321 320 320 320 321 323 324 325 325 326 327 330 329 329 330 329 329 328 327 327 324 322 321 321 320 321 320 319 321 321 321 322 325
309 310 312 315 318 319 319 318 318 322 323 322 325 327 328 326 325 325 325 324 322 322 322 320 320 319 321 321 319 321 320 319 319 318 319 318 320 320 321 323 320 323 323 322 322 322 323 322 322 321 320 320 320 321 321 320 321 322 321 322 323 325 327 327 329 328 329 328 328 329 329 329 328 326 324 323 323 322 324 322 322 324 323 323 324
309 310 312 314 316 317 317 317 318 320 321 322 325 327 328 327 327 326 324 324 322 321 321 321 320 319 320 320 320 321 320 320 319 320 319 320 319 318 320 320 321 319 320 321 323 321 322 320 320 320 320 320 320 320 320 320 320 320 320 320 322 323 323 325 326 328 329 328 329 330 330 330 328 329 327 325 327 329 326 321 322 328 322 321 324
308 309 310 314 315 316 316 317 318 320 321 322 325 327 328 327 327 326 324 324 323 321 321 321 321 320 321 320 320 320 320 320 320 319 320 320 319 319 319 318 318 317 319 318 320 321 320 321 320 319 318 318 318 318 318 318 318 317 318 318 319 320 322 323 323 326 328 329 328 329 329 329 329 329 328 326 325 324 323 322 320 321 325 321 323
308 309 309 313 314 315 316 317 318 321 323 324 326 328 328 327 327 326 325 324 323 322 321 321 320 320 320 320 320 319 319 319 319 319 319 319 321 320 319 320 318 318 318 320 320 320 319 319 318 317 316 316 315 316 317 316 317 317 316 317 318 319 320 320 321 323 326 328 328 327 327 329 329 329 329 327 326 325 323 322 321 317 318 322 321
308 309 310 315 314 315 317 316 319 320 323 325 326 328 328 327 327 326 325 324 323 321 320 320 320 320 320 319 319 319 318 318 317 319 320 321 321 320 319 320 319 319 319 319 319 319 318 317 316 315 315 315 314 314 314 314 315 315 315 316 316 319 318 320 320 321 321 324 328 328 327 326 327 329 329 328 328 327 325 325 324 320 315 313 320
308 309 308 318 315 317 317 318 319 320 321 323 324 326 328 327 327 326 325 325 323 321 321 320 320 319 319 318 318 318 318 317 317 317 318 319 320 319 319 319 320 319 319 318 318 318 318 317 315 314 314 314 313 313 313 313 313 313 313 314 315 316 317 317 319 320 321 322 325 327 325 325 327 327 328 328 328 328 327 326 326 322 321 316 314
307 310 312 312 315 317 317 318 318 319 320 322 323 326 328 328 326 326 324 323 323 321 320 320 319 319 318 317 317 317 317 317 318 318 318 318 317 317 317 316 316 317 317 319 318 317 315 314 313 312 312 312 311 310 310 310 311 311 311 312 313 314 314 316 317 318 319 321 322 325 328 328 328 327 327 327 327 327 327 326 326 326 325 320 318
309 308 310 312 314 316 316 317 317 319 320 321 322 326 328 328 327 326 324 324 323 322 320 320 320 319 318 317 317 316 316 316 317 318 317 316 315 315 316 316 318 317 316 315 314 313 313 313 312 311 311 310 310 310 310 309 310 309 310 310 311 312 312 313 315 316 318 319 320 320 324 326 327 327 327 327 327 327 327 327 325 326 325 323 321
307 306 307 309 312 312 316 316 315 317 317 319 321 324 327 327 326 325 325 324 324 321 320 319 319 319 318 317 316 315 315 315 316 315 315 314 314 315 315 315 315 315 314 313 311 310 310 310 310 309 309 309 308 308 308 308 308 308 308 308 309 310 310 312 313 315 316 318 318 319 320 322 326 327 327 327 327 327 328 327 326 325 325 325 324
311 311 309 310 313 316 315 316 314 315 316 317 321 323 325 325 324 324 323 322 322 321 319 318 318 318 317 316 315 315 315 315 315 315 314 314 315 315 314 315 315 312 312 311 310 309 308 308 307 307 307 307 307 307 308 308 307 307 307 308 308 308 308 309 311 313 315 316 317 318 319 320 322 324 325 326 326 326 327 327 327 326 324 326 325
320 315 313 312 313 314 315 314 313 313 315 318 321 322 322 323 323 322 322 320 321 320 318 318 317 317 316 316 316 316 315 314 315 314 314 313 314 314 314 313 311 311 311 310 308 308 308 308 306 306 306 306 306 305 306 306 305 305 306 308 308 307 307 307 309 310 312 314 315 316 317 319 320 321 324 325 326 325 325 325 325 326 325 325 326
317 317 314 311 315 314 311 312 312 316 319 319 320 320 319 322 322 321 320 319 321 319 318 317 317 316 316 316 316 314 314 314 314 314 313 313 313 313 313 312 311 310 310 310 309 308 308 307 306 306 305 305 305 305 306 306 305 305 305 305 306 306 306 306 307 308 310 311 312 314 315 317 320 320 321 324 325 325 326 325 325 326 325 325 326
312 317 317 313 312 315 311 310 310 317 319 320 322 320 322 322 320 319 318 319 320 319 317 316 316 316 315 315 314 314 314 314 313 313 313 313 313 313 313 312 311 311 309 310 309 308 307 306 306 305 305 305 305 305 305 305 305 305 304 304 305 305 305 306 306 307 308 309 310 311 313 315 316 317 319 320 324 325 324 324 324 324 324 323 324
309 309 309 311 310 309 308 308 309 310 316 319 319 319 320 320 319 318 318 320 320 318 316 315 314 314 315 314 314 314 313 313 313 313 313 313 313 313 313 311 311 310 309 309 308 308 307 306 305 304 304 304 305 305 305 305 305 305 305 305 305 304 305 305 306 306 308 308 309 310 312 313 314 315 316 318 319 321 324 324 323 323 322 324 325
309 310 309 310 309 308 309 309 308 309 313 316 318 317 318 319 318 318 318 319 319 317 316 314 314 314 314 314 314 313 313 312 312 312 313 313 313 312 311 312 310 308 308 308 307 306 306 305 305 305 305 305 305 305 305 305 305 305 305 305 305 305 305 305 305 305 306 307 308 309 311 312 313 313 314 316 318 319 320 322 323 323 323 323 324
309 309 309 310 308 309 309 310 309 309 313 316 316 315 317 317 317 317 318 318 317 316 315 314 314 313 313 313 313 312 312 312 312 312 313 312 311 312 310 308 309 308 306 305 305 305 305 305 305 305 305 305 305 306 305 305 305 305 304 304 303 304 304 304 304 305 306 306 307 308 309 310 311 313 314 315 316 317 319 319 322 323 323 323 322
306 307 308 309 310 310 309 309 310 310 311 313 315 314 315 316 315 316 316 317 317 316 314 313 313 313 313 313 313 313 312 312 313 312 312 312 311 310 309 310 309 306 305 304 304 304 304 304 304 304 305 305 305 304 304 304 304 304 304 304 303 303 303 303 303 304 305 305 306 307 307 308 310 311 313 314 316 316 317 317 319 322 324 323 322
301 305 307 307 308 315 312 311 311 310 309 315 314 312 314 315 315 315 316 316 316 315 313 312 312 312 312 312 312 312 312 312 311 310 310 309 309 310 310 308 306 305 306 305 304 304 303 303 304 304 304 305 305 304 304 304 304 303 303 303 303 303 303 303 303 303 304 304 304 305 306 307 309 309 307 307 309 310 315 315 316 318 319 321 322
300 302 305 307 308 310 311 313 312 311 311 309 310 311 312 314 314 314 315 315 315 314 313 311 311 311 311 310 310 311 311 310 310 309 308 309 309 309 308 306 305 304 304 304 304 304 303 303 302 303 303 304 304 305 303 300 300 303 303 302 303 303 302 302 302 302 303 303 304 304 305 306 304 304 303 302 301 302 304 308 312 313 314 316 319
301 301 303 305 307 309 313 311 310 309 307 312 313 311 313 313 312 313 313 314 314 313 312 311 310 311 310 310 309 309 309 308 308 308 309 308 306 306 305 304 304 304 304 304 303 302 301 302 301 301 301 302 303 303 299 296 295 296 299 301 301 301 301 301 300 300 301 302 303 304 304 305 305 304 305 301 300 300 300 301 302 303 305 311 312
302 304 305 305 307 311 311 309 311 312 311 309 313 311 313 311 311 311 313 313 313 312 311 310 309 309 309 309 309 309 308 307 307 306 306 305 307 307 304 303 303 303 303 304 302 301 301 300 301 301 300 301 301 299 296 295 295 295 296 299 300 300 300 300 300 299 299 300 300 302 303 305 305 306 307 307 306 302 300 300 300 300 299 299 301
302 303 306 306 306 309 313 313 312 308 308 312 314 310 311 310 310 311 312 311 311 310 309 309 308 308 308 309 308 307 306 306 306 306 306 307 306 304 302 302 302 302 304 303 301 301 300 300 300 299 299 299 300 297 295 295 294 293 293 295 298 299 299 299 299 299 299 299 299 300 300 302 304 305 307 307 307 308 304 300 301 302 301 300 298
301 304 306 307 306 306 311 314 312 310 315 316 312 312 310 311 311 311 311 310 309 308 308 307 307 308 308 308 307 306 306 306 307 306 305 304 303 302 303 302 302 302 302 302 301 299 299 299 299 299 299 299 299 297 295 294 294 293 293 293 296 297 298 298 298 299 299 299 299 298 298 299 301 303 305 307 308 308 309 311 309 309 310 309 303
302 305 308 309 308 308 307 311 311 314 312 311 311 309 309 309 310 309 309 309 308 307 307 307 307 307 307 307 306 305 305 305 305 305 306 304 302 302 302 301 302 302 300 299 298 298 299 299 299 299 298 298 299 296 294 294 294 293 293 293 296 296 297 297 297 298 298 299 299 299 298 298 299 300 302 304 306 308 310 312 313 314 313 313 314
303 306 307 307 307 307 309 311 313 313 311 311 310 309 309 308 309 308 308 307 307 306 306 307 307 306 306 306 306 306 306 305 304 304 303 302 302 302 301 302 302 301 301 299 299 299 298 298 298 298 298 297 298 295 293 293 292 292 292 295 296 296 296 296 296 297 297 298 298 298 298 298 298 299 299 296 298 302 305 307 311 313 314 316 316
304 306 308 308 309 311 311 312 312 311 310 310 309 308 310 309 308 307 306 306 306 305 305 306 306 306 306 306 305 305 305 304 304 303 301 302 301 302 302 302 300 299 298 298 297 298 298 297 297 297 297 296 297 296 293 293 292 292 292 294 295 295 295 295 295 296 297 297 298 298 298 298 298 298 297 295 295 296 301 303 305 307 312 315 316
303 304 309 311 311 311 311 310 310 309 308 309 308 307 307 308 307 306 305 305 305 305 305 305 305 305 305 305 305 303 303 303 303 302 302 303 303 302 301 302 299 298 297 297 297 297 297 297 297 296 296 296 296 296 293 293 292 292 293 294 294 294 294 294 294 295 296 296 297 298 299 298 297 298 296 294 294 296 299 301 302 304 307 310 314
306 306 307 309 309 311 310 311 312 310 311 310 311 308 307 306 306 305 305 304 304 305 305 304 304 304 304 304 305 304 304 305 303 303 304 302 301 301 301 301 300 298 297 297 297 296 296 296 296 296 297 295 295 295 294 292 292 292 293 294 294 293 292 292 293 293 294 295 296 297 298 298 298 297 294 294 293 295 298 300 302 304 306 307 312
308 311 309 309 311 310 310 311 310 310 313 310 311 308 307 306 306 305 304 304 304 305 305 304 303 303 306 307 308 306 304 304 304 304 303 302 302 301 300 299 299 298 296 296 296 295 294 294 295 295 295 295 294 294 295 292 292 292 292 293 293 292 291 292 292 293 293 294 295 295 296 294 293 293 293 293 293 293 296 298 299 300 305 308 312
305 306 305 308 310 311 310 310 311 311 310 309 308 308 306 306 305 305 304 305 306 304 303 302 303 302 302 302 303 306 307 306 305 304 303 302 301 300 299 298 297 297 296 295 295 294 294 294 294 294 293 294 294 294 294 292 292 291 291 291 292 292 292 292 292 292 293 293 294 295 296 295 293 292 292 292 293 293 294 297 297 298 299 303 304
305 305 306 308 308 309 310 310 309 309 309 309 308 306 305 304 304 304 305 306 304 303 302 302 302 301 303 306 307 307 306 306 306 304 302 300 301 300 298 298 297 296 295 294 294 294 293 292 293 293 293 293 294 294 293 292 291 291 291 291 291 292 293 293 292 292 293 293 294 294 295 295 293 293 292 292 292 293 293 296 297 295 294 294 300
304 304 305 305 306 307 308 308 309 308 306 307 307 305 304 304 304 305 305 304 304 303 301 302 302 302 306 306 306 305 305 306 305 303 301 300 300 299 299 298 297 296 294 293 292 292 292 291 291 292 292 292 292 292 292 292 291 291 291 290 290 290 291 292 292 292 292 293 294 295 295 294 293 293 292 292 292 292 293 295 293 293 293 294 296
304 304 303 303 307 307 307 308 310 307 307 308 306 304 303 303 304 305 302 302 301 302 302 302 303 305 303 302 301 306 307 305 304 303 300 299 298 299 298 297 296 294 292 291 291 291 291 290 290 290 291 291 291 291 291 291 291 290 290 290 290 289 290 291 292 292 292 293 293 294 294 293 293 293 292 292 292 292 294 293 293 293 293 294 301
303 304 304 305 304 304 305 306 305 305 306 307 306 304 303 303 303 302 301 301 301 301 303 303 302 301 304 300 304 304 304 303 303 301 298 297 298 298 296 296 295 294 292 291 291 291 290 289 289 289 289 290 290 290 290 290 289 290 289 289 289 289 289 289 290 291 292 293 292 292 291 292 292 292 292 292 293 293 292 292 293 293 295 299 302
304 305 306 304 303 303 305 307 304 304 306 306 305 304 303 302 301 301 301 302 301 301 301 301 299 303 300 298 299 302 299 300 300 299 299 299 298 296 295 295 295 293 292 292 291 290 289 288 288 288 288 288 289 289 288 289 290 290 290 289 289 289 289 289 290 290 290 290 290 291 291 291 292 293 295 295 296 297 294 293 292 294 298 302 304
301 302 303 303 303 303 303 305 303 304 305 305 305 305 303 302 302 302 302 302 301 301 300 303 303 302 301 304 302 298 299 300 302 300 298 298 299 296 296 292 293 292 292 291 290 289 288 288 287 287 287 287 287 287 287 288 289 289 289 289 288 288 289 288 289 290 290 291 291 291 291 291 292 293 293 293 294 296 297 298 297 297 300 304 304
304 303 303 302 303 302 302 303 303 306 305 304 304 304 303 302 302 302 301 302 301 299 300 299 300 301 299 299 301 292 295 300 300 299 296 296 297 297 292 290 289 289 290 289 289 288 288 287 287 287 286 286 286 286 287 287 287 287 287 287 287 287 288 288 288 290 292 294 294 291 291 292 293 294 295 295 296 297 297 297 299 299 302 303 302
303 303 302 302 302 301 304 303 303 305 306 303 304 303 302 301 302 302 302 301 300 300 303 300 300 299 299 302 300 301 301 299 298 299 298 297 291 291 295 290 291 292 288 287 288 288 288 288 288 286 285 284 285 285 286 287 287 287 286 286 286 287 288 289 290 290 292 293 292 292 291 292 292 291 292 293 294 295 295 297 299 301 302 302 300
305 303 303 303 304 307 305 303 303 304 304 302 305 302 302 301 302 301 302 300 299 299 300 300 300 299 299 300 302 298 298 298 298 296 296 296 291 290 293 291 290 290 289 289 289 288 289 289 288 287 287 285 284 286 287 287 287 287 287 287 287 287 287 288 288 288 289 290 290 290 290 291 291 292 292 292 292 292 292 294 296 296 298 299 297
303 303 302 303 305 304 305 303 304 308 304 302 302 301 302 302 302 302 301 300 300 299 298 299 299 299 297 302 301 301 298 298 297 297 296 294 294 293 289 290 290 290 290 289 289 288 288 288 288 287 288 288 287 287 287 287 287 287 287 286 287 287 288 287 288 288 289 290 290 290 290 291 291 291 291 291 291 291 291 292 292 293 294 295 294
Wind_Speed
12 11 15 14 11 13 10 11 9 9 9 10 9 9 8 8 8 6 4 4 4 4 1 3 2 3 3 1 1 3 3 2 4 4 2 4 2 2 2 2 1 1 1 1 2 3 2 4 4 4 3 2 2 2 3 3 4 4 2 0 3 4 3 2 4 4 4 5 8 1 2 4 4 6 6 5 5 4 3 3 4 5 4 6 6
7 8 14 16 14 15 12 12 11 12 9 9 9 8 8 8 8 6 5 4 2 4 4 2 2 2 1 2 1 4 3 3 3 3 2 4 2 2 1 0 2 2 0 0 0 1 1 1 1 3 5 4 3 2 3 3 4 4 2 4 4 3 3 3 1 3 1 2 3 2 2 1 3 4 6 7 7 6 3 5 6 6 4 4 5
7 8 7 14 16 17 13 12 12 11 11 10 9 8 7 8 6 7 5 3 2 4 4 3 3 2 2 2 2 2 3 1 3 3 2 2 3 1 4 5 4 3 3 2 2 2 2 3 2 1 1 2 4 3 3 4 4 6 5 5 5 3 3 3 4 5 2 2 2 6 4 3 3 4 4 6 7 7 6 7 7 6 7 6 5
9 7 9 10 16 16 13 11 12 10 11 10 9 9 8 7 6 8 6 5 4 3 4 4 4 3 2 2 1 2 3 4 4 3 2 2 1 2 4 2 2 2 3 4 4 3 2 0 1 2 2 2 2 3 3 5 4 5 5 7 6 6 6 6 6 6 5 3 3 5 5 5 4 7 7 8 10 10 9 9 7 8 9 9 5
9 7 7 8 14 15 14 12 11 11 11 11 10 9 7 9 7 9 7 6 5 4 5 4 4 3 2 1 2 0 2 2 2 3 1 2 1 3 2 3 1 1 3 4 3 3 5 5 5 2 1 2 3 3 2 3 3 4 6 6 7 8 9 6 4 8 10 9 6 1 4 6 6 3 10 7 7 8 11 11 8 9 9 8 6
2 5 8 8 11 13 14 13 11 10 11 11 11 10 9 9 8 8 7 6 6 5 5 5 4 5 5 4 5 6 3 3 3 2 2 2 2 1 1 1 1 0 0 2 4 4 2 2 2 3 3 4 3 3 3 3 4 4 4 6 8 10 10 8 8 4 7 9 10 7 3 2 2 4 3 3 7 9 8 10 10 9 9 7 6
6 6 6 10 9 11 14 15 12 11 10 9 11 10 9 9 8 9 7 6 7 6 6 5 5 3 2 2 1 1 3 3 2 2 1 2 2 1 1 1 2 2 2 1 1 2 3 2 2 2 3 4 4 4 4 4 4 3 5 5 7 8 8 9 10 9 4 4 3 7 10 9 9 6 5 4 4 6 6 6 8 11 10 9 8
7 8 6 11 12 11 12 14 13 11 10 9 10 10 10 10 9 10 7 7 7 7 6 5 4 3 3 2 1 2 2 4 3 2 1 0 2 1 2 1 1 0 2 2 1 1 2 3 3 2 3 3 4 5 5 4 4 3 3 5 5 6 8 10 10 8 7 6 7 9 7 8 10 12 10 7 6 1 6 7 5 8 7 8 9
9 8 7 6 12 12 10 13 13 13 11 10 10 10 9 9 10 10 9 8 8 8 7 6 5 5 4 3 3 3 2 4 2 3 3 2 1 2 1 1 2 1 1 1 2 1 1 2 2 3 4 4 4 4 5 5 5 5 4 3 4 6 6 8 8 8 8 9 9 8 9 9 9 10 9 6 4 4 3 7 8 5 5 4 7
11 11 10 6 8 11 10 11 12 11 10 10 9 9 9 8 10 12 10 8 8 9 7 6 4 6 5 4 4 4 3 3 2 3 2 3 2 1 2 2 2 3 2 1 0 1 0 1 2 2 3 5 4 5 6 7 7 5 5 5 5 5 5 7 9 8 7 8 10 7 8 7 9 8 8 7 8 6 5 3 3 5 4 5 6
12 12 11 8 8 11 11 11 11 10 9 10 9 9 8 9 9 13 11 8 9 9 8 7 4 5 4 4 4 4 3 3 2 3 3 2 2 2 2 1 1 0 1 2 3 2 2 2 1 2 2 3 4 5 6 6 5 4 4 5 7 7 6 6 8 9 8 8 10 9 10 9 9 9 10 9 8 3 2 5 5 2 3 3 5
13 13 12 11 9 10 11 10 10 10 10 10 9 9 9 9 9 12 11 10 10 9 8 7 6 5 4 5 4 4 3 3 3 4 3 3 1 1 2 1 2 2 1 1 2 3 1 0 2 2 3 3 4 4 4 6 5 6 7 6 6 7 6 6 5 8 11 9 10 10 10 9 9 9 8 7 6 5 4 4 4 0 3 2 2
11 11 11 12 11 10 11 10 10 9 10 11 11 9 9 9 10 12 12 10 11 9 8 8 7 6 5 6 5 4 4 4 3 2 3 2 2 2 1 1 1 2 2 1 1 0 0 2 2 3 3 3 3 3 3 4 5 6 6 7 7 5 5 6 5 6 8 10 10 9 9 9 10 8 7 7 5 2 2 3 5 0 3 3 6
10 12 11 12 11 12 13 11 11 9 11 10 10 9 9 8 10 12 11 10 10 9 8 8 7 6 5 5 5 4 4 4 3 3 3 2 3 2 2 2 1 0 0 0 1 1 1 2 2 3 4 4 4 4 4 4 5 6 6 7 7 6 6 7 8 7 8 9 10 10 9 10 10 8 8 7 7 5 5 6 6 3 0 5 4
9 10 11 13 16 15 14 13 11 10 9 9 8 9 9 9 10 11 11 11 11 10 8 8 7 6 6 5 5 5 4 4 3 3 4 3 1 2 2 1 1 1 2 2 2 2 1 2 2 3 4 5 5 5 5 5 6 6 6 7 7 7 8 8 8 8 7 7 9 10 10 9 9 9 8 8 7 8 8 7 6 8 6 5 6
9 8 7 7 15 15 12 13 12 12 13 9 10 10 9 9 10 11 11 11 10 10 9 8 7 6 6 6 6 5 5 4 4 2 3 3 2 2 2 1 1 1 1 1 1 1 2 2 3 3 4 4 5 6 5 5 5 6 6 6 8 6 8 9 8 8 10 9 8 8 8 8 8 9 9 8 9 8 8 7 6 7 9 9 5
7 10 8 4 14 12 13 11 9 10 11 11 11 10 10 9 9 10 10 10 11 10 9 8 7 7 7 6 5 5 5 5 4 4 3 3 2 2 2 2 1 1 1 1 2 2 2 2 3 4 4 3 4 5 6 6 6 6 7 7 8 8 8 9 8 9 9 8 6 7 8 10 10 7 8 8 8 8 8 7 8 9 8 9 8
9 5 5 7 11 15 13 12 11 11 12 13 13 11 9 8 9 10 10 12 11 11 10 9 9 8 7 7 6 5 4 4 3 3 3 3 2 2 2 2 2 2 2 2 1 2 3 5 5 5 4 4 5 5 6 7 6 6 7 8 8 8 8 8 9 9 9 8 8 7 7 8 8 8 7 7 8 8 8 9 9 8 8 10 9
5 6 4 4 5 14 15 15 14 12 11 12 13 12 11 8 9 10 11 12 13 11 9 8 8 7 7 7 7 6 5 4 3 3 3 3 4 3 3 3 2 1 2 2 3 4 3 3 3 4 4 4 4 4 4 5 6 6 6 7 8 8 8 9 9 9 9 9 9 9 8 7 7 9 9 8 9 9 8 9 10 9 9 10 10
6 6 7 6 6 9 14 14 14 12 11 9 11 11 13 11 10 9 9 9 11 11 10 9 9 8 7 7 7 7 7 6 5 4 4 4 4 3 3 3 3 2 3 3 4 4 4 4 4 4 5 5 5 5 5 5 5 6 6 7 7 8 10 11 10 9 9 9 9 10 9 8 7 8 8 8 9 9 9 9 9 10 10 10 9
5 4 5 6 5 4 10 12 12 12 12 10 11 13 13 12 11 11 11 10 11 11 10 9 9 9 9 9 8 7 7 6 5 5 4 4 3 3 3 3 2 3 4 5 5 4 4 4 5 5 6 6 5 5 4 4 4 6 7 7 8 10 12 11 11 11 10 11 11 12 11 10 7 9 8 8 9 9 9 9 9 9 11 10 11
2 3 4 5 4 5 6 10 10 11 10 12 14 13 13 13 12 12 11 11 12 12 10 10 9 8 9 9 8 7 6 5 5 5 5 4 3 3 3 3 4 5 5 4 5 5 5 6 6 6 6 6 6 6 6 5 6 6 8 7 7 8 11 12 11 12 11 10 10 11 12 11 11 10 9 11 10 10 11 11 12 10 10 11 11
3 3 4 6 4 5 8 9 9 8 12 13 11 11 11 11 12 10 11 11 12 12 11 9 9 9 9 8 8 7 6 6 6 5 5 5 4 4 4 4 5 5 5 5 5 4 6 6 6 6 6 6 6 6 5 5 7 8 9 8 8 10 10 11 11 12 12 12 12 11 12 11 9 10 8 10 10 11 10 11 13 11 11 12 12
6 3 3 4 5 4 6 10 12 10 12 12 10 10 10 10 11 11 11 12 12 11 10 10 9 9 9 8 8 7 7 7 6 5 5 4 4 4 4 4 5 5 5 4 4 5 6 6 7 7 7 7 7 7 7 7 9 9 10 11 10 10 11 11 11 12 13 12 12 12 12 12 12 11 10 8 9 10 10 10 11 10 10 11 11
10 8 7 6 8 8 9 10 12 10 10 10 11 11 11 10 10 11 11 12 12 11 11 12 11 10 10 9 8 7 7 7 6 5 5 5 4 4 3 5 4 5 5 4 5 4 5 6 7 8 8 8 8 8 9 9 9 9 10 10 11 11 11 12 12 12 12 13 13 13 13 12 12 12 11 9 8 9 10 10 10 10 10 11 10
8 6 10 10 9 10 10 9 11 11 13 12 10 10 11 10 11 9 11 11 11 10 11 10 10 10 10 9 8 7 7 6 6 5 4 4 3 4 3 3 4 5 5 5 6 6 6 7 7 8 9 10 10 10 10 11 10 10 10 10 10 10 11 12 12 12 13 13 13 14 13 13 13 13 11 10 11 11 10 11 12 11 12 11 12
8 13 9 7 9 12 11 10 11 8 13 14 13 13 12 11 11 10 11 11 11 11 10 10 10 10 10 9 8 7 6 5 5 4 4 3 3 3 3 4 3 4 4 6 6 7 6 6 8 8 9 9 9 10 10 11 11 11 11 11 11 11 11 11 12 13 13 13 14 14 13 13 13 13 14 12 11 12 9 8 9 11 11 11 11
11 11 13 9 5 11 14 13 12 7 12 11 14 12 12 12 12 11 11 10 9 11 11 10 10 10 9 9 8 7 6 5 4 4 3 3 2 3 3 2 2 4 5 6 7 7 7 7 8 8 9 8 9 9 10 10 11 11 10 11 11 11 11 12 12 13 13 13 13 14 14 14 14 13 13 14 13 11 10 10 9 8 10 11 12
17 14 12 11 8 3 9 9 8 12 12 13 13 13 11 10 11 11 10 10 10 10 10 10 10 9 8 8 6 6 5 4 4 3 3 3 3 2 1 2 3 4 5 6 6 7 8 9 9 9 10 9 8 9 8 9 10 11 11 11 11 12 12 13 12 13 13 13 13 13 14 15 16 18 19 17 16 14 9 9 8 5 7 8 10
18 16 15 12 11 5 5 6 7 9 15 9 12 14 12 12 11 10 10 9 9 10 10 10 9 8 7 6 6 4 4 4 3 4 4 4 2 2 2 4 5 5 5 5 6 6 8 9 10 10 10 9 8 7 9 12 12 11 11 12 11 11 11 11 12 12 13 13 14 13 14 19 20 21 21 20 19 20 21 15 12 11 10 9 7
17 17 16 16 14 11 4 3 2 6 12 19 7 11 13 13 11 10 11 10 11 9 9 9 9 8 8 7 6 6 5 6 5 5 3 2 4 4 4 5 4 4 5 5 3 5 7 8 10 10 11 10 9 8 12 12 11 12 10 11 12 13 13 14 14 14 14 13 13 14 14 16 18 18 19 22 23 22 21 24 23 19 15 12 11
17 16 16 15 13 11 10 8 6 4 0 12 11 7 12 12 10 12 12 11 9 9 9 9 8 8 8 8 6 6 6 5 5 4 4 4 3 2 3 4 4 5 5 3 3 5 7 8 8 10 11 10 9 11 14 13 13 14 12 11 12 12 12 13 14 14 14 14 15 14 13 12 13 15 15 15 18 21 23 23 24 24 21 20 17
18 18 12 13 15 14 5 7 8 9 8 8 8 8 10 10 10 10 10 10 9 9 9 8 8 8 8 7 7 6 6 4 4 3 3 3 2 3 5 5 5 5 3 3 4 6 7 8 9 11 11 11 11 12 13 14 14 12 12 11 8 11 14 14 14 15 15 15 14 14 14 13 13 18 16 15 16 16 16 22 25 26 27 23 21
18 15 13 11 12 11 8 9 12 14 11 10 9 10 8 8 10 10 10 10 11 10 8 8 8 7 7 6 5 5 4 3 3 3 3 3 3 4 4 4 5 4 3 3 3 6 8 9 9 10 10 10 11 12 14 15 15 16 16 11 9 10 13 14 15 15 14 15 16 15 14 15 15 16 16 16 14 14 16 14 14 17 18 22 24
17 11 8 10 10 12 13 12 10 12 12 11 7 10 7 10 10 10 10 10 10 10 8 8 7 6 5 5 5 4 3 3 4 3 2 3 4 4 4 5 3 1 3 4 5 6 8 9 10 10 11 11 10 14 15 17 17 18 19 18 13 12 13 14 15 15 16 16 17 16 17 16 16 16 15 17 15 14 13 14 15 14 16 17 16
15 12 12 11 9 8 10 12 9 10 10 11 12 10 8 9 11 10 10 9 10 9 9 8 7 5 4 4 3 2 3 3 3 3 4 4 4 4 4 3 2 1 2 3 5 6 8 10 10 10 10 11 10 12 12 12 13 14 16 12 13 13 14 15 15 16 16 16 16 17 17 17 17 17 19 21 20 16 15 15 13 14 14 13 14
16 13 14 14 11 7 8 11 10 11 13 16 15 11 8 9 11 10 11 10 8 9 9 8 7 7 5 3 3 3 3 3 3 4 4 4 4 3 3 2 3 3 4 5 5 7 8 10 11 10 11 12 11 11 12 13 14 15 13 12 12 12 14 16 17 16 16 16 17 17 17 16 17 17 18 19 21 20 19 17 17 15 14 13 13
19 17 10 8 8 11 10 15 18 15 12 9 10 11 11 9 10 10 11 10 9 8 7 7 6 4 4 3 3 3 3 3 3 4 3 2 2 3 3 2 2 3 4 5 6 8 9 10 11 11 11 12 12 12 15 15 16 17 16 14 12 13 15 15 15 15 15 15 17 23 24 19 18 17 17 18 20 17 17 20 18 17 16 16 14
19 16 10 6 9 9 15 13 8 9 8 8 7 10 11 10 10 9 10 9 8 7 6 8 8 5 5 3 3 3 2 2 2 2 2 2 3 3 2 2 2 3 4 5 7 8 9 9 10 11 14 15 13 13 14 15 16 16 15 13 12 13 15 15 14 16 15 15 16 17 23 22 20 19 19 18 19 18 17 18 17 16 16 17 14
13 4 4 3 5 9 10 4 5 6 4 10 10 10 9 10 11 9 9 8 9 8 5 7 9 6 2 1 2 2 3 3 2 2 2 2 2 2 3 2 2 2 4 6 8 8 11 11 11 12 11 11 12 12 13 16 17 18 19 16 13 14 16 16 15 14 14 15 15 15 17 21 23 23 23 23 22 21 19 17 12 12 14 13 7
12 12 7 5 5 1 4 4 3 7 8 6 7 10 8 9 9 7 8 7 6 9 9 7 4 4 3 4 3 1 1 1 1 2 2 2 2 3 2 3 3 3 4 5 8 9 10 11 11 11 11 11 11 13 13 16 18 19 20 19 15 15 15 15 14 15 14 14 14 14 13 17 20 20 22 24 25 25 24 20 18 12 15 14 13
8 9 5 6 5 3 5 6 10 10 6 7 5 10 9 9 8 7 7 7 10 9 7 6 3 3 3 1 1 0 0 0 1 2 2 3 2 2 3 1 1 3 5 7 8 9 9 10 10 11 11 12 13 16 15 17 19 20 21 23 17 15 15 14 15 14 14 14 15 14 14 16 20 22 20 22 24 24 27 20 23 26 22 20 15
6 6 8 8 7 6 8 7 4 5 7 5 8 11 9 9 8 6 9 11 8 9 6 3 3 3 1 1 2 2 2 1 1 2 3 3 3 2 1 0 1 2 4 6 8 9 10 11 12 11 10 11 12 13 17 16 18 20 21 22 23 20 20 16 15 16 15 15 14 15 16 20 22 22 21 21 21 25 24 21 27 27 25 25 16
2 2 3 7 7 3 9 4 2 5 3 4 9 10 9 9 8 9 11 10 9 7 3 3 2 1 2 2 1 1 0 1 2 1 2 3 3 1 2 2 2 2 3 6 6 7 9 10 12 12 11 11 12 12 14 18 17 21 22 23 22 22 22 16 16 15 15 16 15 16 16 20 22 23 23 21 20 22 19 23 24 26 27 20 11
6 6 8 10 11 13 8 6 5 8 4 5 9 10 10 9 11 13 11 10 8 5 2 2 3 3 1 1 1 0 1 1 2 2 3 3 2 0 1 1 1 2 3 6 7 7 9 10 11 12 12 12 12 12 13 15 20 21 22 22 21 22 22 23 18 16 17 16 17 21 21 22 23 22 22 22 21 23 25 24 24 25 20 10 12
9 11 11 14 16 11 9 6 6 5 4 6 8 9 8 12 13 11 10 9 9 4 4 3 2 1 2 1 3 1 3 3 3 3 3 3 1 1 1 0 1 3 5 5 7 8 9 10 11 10 11 12 12 14 15 14 14 17 17 18 21 22 24 25 25 21 24 24 23 24 25 24 22 20 17 15 13 14 18 21 24 23 11 11 11
14 15 12 14 9 5 6 8 4 3 4 8 10 9 13 13 11 10 9 8 8 5 5 1 1 2 3 1 0 2 1 2 2 3 3 3 2 1 2 2 1 3 4 5 7 8 9 9 9 10 11 11 12 13 13 13 12 12 12 13 15 16 20 21 17 16 17 17 21 22 19 20 18 21 19 14 12 14 14 14 13 13 12 11 12
13 14 8 7 5 5 5 5 7 2 3 7 6 7 14 13 10 9 8 6 5 5 4 4 3 2 3 2 1 6 4 2 2 3 3 3 3 2 2 0 1 1 3 5 6 8 8 9 10 10 11 11 12 11 12 12 13 13 14 15 15 14 14 12 14 14 13 14 14 15 19 16 15 14 13 10 11 11 11 12 11 11 12 12 13
13 10 8 5 4 7 5 4 6 2 2 9 5 8 14 13 10 9 8 6 5 2 1 3 3 5 2 1 2 2 1 2 3 3 3 3 2 2 2 2 3 1 0 3 6 7 7 7 8 10 13 12 11 12 12 14 17 20 17 13 13 13 12 13 14 18 15 12 10 10 10 11 12 11 10 10 10 10 9 10 13 11 10 10 9
9 10 6 3 1 1 6 5 8 5 5 9 3 10 12 12 10 9 8 7 5 4 4 3 2 4 2 1 2 3 3 3 3 4 5 5 5 6 6 1 1 5 5 7 4 5 7 8 8 9 9 11 12 13 20 23 23 23 23 23 22 22 21 17 18 22 17 10 7 7 7 8 9 8 9 9 9 7 6 6 6 11 11 10 9
10 7 5 4 1 3 3 7 6 1 3 7 7 12 10 9 8 9 8 5 4 5 6 4 3 4 2 1 0 2 3 3 4 4 4 5 4 4 4 7 8 4 2 4 6 8 11 11 10 11 12 16 18 21 22 22 23 23 23 22 21 18 21 22 19 12 10 7 6 7 7 7 7 7 8 8 7 7 6 6 5 5 7 11 10
Wind_Direction
180 167 154 163 160 151 149 148 153 152 162 159 171 167 158 154 154 167 162 174 190 207 65 53 76 117 105 119 125 93 64 42 106 84 49 84 12 35 336 56 86 89 309 27 0 326 151 196 156 170 201 246 292 283 294 271 251 278 313 183 220 233 253 333 335 7 359 330 305 250 140 163 196 192 220 250 261 243 203 216 248 252 197 180 174
213 163 165 161 163 157 154 151 156 159 170 169 173 174 156 163 163 154 154 199 217 83 99 89 52 47 61 53 3 78 58 40 69 86 153 129 150 140 218 143 32 348 242 141 308 194 286 356 240 175 158 181 199 249 248 253 270 266 253 279 257 237 231 173 212 63 318 238 289 327 293 252 217 202 208 217 230 246 213 206 235 238 228 206 179
203 196 185 167 163 158 158 155 157 165 169 171 173 176 167 165 164 148 164 161 138 127 145 116 90 39 51 84 360 104 107 51 91 138 73 89 148 157 85 39 12 336 313 285 191 216 208 217 206 253 219 183 163 200 224 233 228 244 240 246 267 259 254 191 180 163 231 327 310 322 267 238 254 246 227 228 219 232 220 219 215 224 236 223 186
227 207 198 185 163 154 156 155 159 165 168 170 174 176 175 168 174 151 162 159 152 186 117 125 121 113 112 114 71 0 127 176 161 113 106 107 98 105 87 49 16 306 328 340 334 331 307 356 63 28 336 313 224 199 199 209 215 225 216 232 246 265 251 239 185 181 188 175 239 206 242 199 216 208 221 226 223 215 221 221 211 219 226 226 198
215 202 229 186 153 152 156 158 161 169 169 172 174 179 175 175 171 154 161 156 160 134 126 122 130 154 141 166 143 12 224 104 78 92 107 106 96 69 91 117 256 8 356 328 316 326 18 7 350 339 310 300 323 304 250 228 218 211 216 211 210 230 253 256 205 191 209 206 219 246 265 249 232 219 197 232 210 222 222 218 208 213 223 215 202
245 194 224 134 142 149 154 162 168 174 174 175 172 178 172 171 171 151 159 155 151 156 155 158 168 179 177 177 196 189 160 115 89 88 75 69 52 96 172 113 108 57 6 301 333 338 357 342 324 334 325 311 268 267 294 273 219 224 220 206 213 212 226 237 241 218 208 198 205 219 222 243 352 347 1 224 192 218 224 220 214 214 222 209 205
220 251 184 147 156 160 160 165 172 178 180 172 169 174 176 169 169 152 162 158 150 168 169 187 179 181 196 194 89 37 109 96 107 122 117 120 132 97 19 155 202 169 182 69 307 311 312 330 323 308 301 303 298 289 278 276 277 237 210 206 209 214 217 231 233 235 229 262 284 244 245 248 252 260 267 294 227 217 227 220 223 216 213 213 216
198 212 213 170 168 176 170 165 171 178 178 172 166 168 179 170 162 157 164 160 158 166 181 186 168 163 174 166 162 188 111 126 158 126 98 283 87 151 156 215 351 226 115 188 153 285 310 324 321 296 289 282 295 295 284 283 287 284 252 226 207 210 213 222 232 230 227 235 223 248 257 263 270 268 255 252 283 216 214 246 240 226 212 203 212
188 193 219 191 171 170 171 168 171 174 175 175 167 169 174 171 159 161 166 161 160 166 179 189 178 155 163 178 201 127 119 146 172 160 161 106 176 138 340 4 139 309 319 110 161 230 218 298 326 331 303 296 293 284 280 279 268 272 286 264 238 229 220 219 225 224 220 224 222 227 242 242 246 252 274 276 252 269 237 205 224 229 226 209 206
191 194 192 213 162 161 168 168 171 174 169 168 164 163 171 172 160 165 172 161 162 167 181 186 179 153 175 182 182 146 178 167 190 131 149 161 180 150 177 213 205 165 168 250 5 169 244 210 256 278 311 306 307 301 303 298 297 301 302 299 287 256 242 242 226 227 218 219 223 222 228 230 236 247 246 252 264 248 248 272 207 202 220 227 198
196 187 178 195 160 161 164 169 171 163 162 164 164 166 172 175 165 168 176 161 164 169 175 182 170 163 180 172 174 165 178 160 174 135 185 162 194 161 185 205 42 17 116 173 201 225 179 225 235 266 273 282 287 289 289 296 300 299 285 273 272 264 249 232 241 236 223 228 227 224 229 222 222 227 229 225 231 217 233 247 261 214 201 230 229
190 183 174 183 169 160 160 164 166 162 162 166 162 168 173 177 170 169 179 164 165 171 172 171 167 180 174 165 179 167 167 172 197 172 173 169 170 166 182 189 198 182 192 212 190 201 190 201 233 238 248 258 262 265 276 292 314 324 316 297 272 272 266 257 239 237 235 228 231 231 233 229 229 232 234 229 217 225 198 236 236 143 327 275 299
195 179 183 170 168 155 156 158 166 168 170 164 165 170 173 177 173 175 180 169 163 170 174 167 174 183 170 167 177 168 172 188 194 171 158 177 174 195 201 213 173 210 180 225 58 92 32 277 265 250 248 241 256 268 284 298 306 307 297 290 292 284 284 286 274 255 250 241 233 229 231 233 236 233 232 232 231 190 180 240 260 98 234 283 290
205 188 193 164 164 155 158 166 174 167 163 167 168 170 174 177 179 182 179 174 158 168 175 169 177 178 164 168 173 164 179 190 179 182 168 200 178 174 174 207 261 198 275 195 296 1 260 262 300 320 310 308 299 295 284 273 269 275 285 293 297 296 295 285 273 261 244 242 249 245 228 228 232 232 235 229 228 221 222 223 250 272 193 268 268
217 213 198 170 163 162 164 170 161 152 163 171 172 176 174 178 183 184 178 173 160 168 172 174 174 173 170 173 176 168 175 182 195 190 169 190 183 172 176 178 217 238 229 212 205 219 259 303 295 297 298 296 298 296 295 295 294 284 279 282 284 288 283 278 282 286 271 242 235 241 248 234 227 229 228 232 224 224 222 216 211 246 255 235 256
204 228 224 169 166 163 168 166 153 159 167 174 178 176 179 184 183 184 180 171 164 167 174 175 175 175 173 180 180 172 179 180 190 195 161 178 175 190 181 200 231 281 290 277 264 256 264 261 268 262 268 272 280 284 288 296 302 299 292 288 286 284 284 285 282 271 271 266 241 239 250 254 244 231 225 228 228 222 218 217 208 213 235 255 238
212 201 207 191 157 161 161 159 163 163 169 175 181 178 182 182 180 181 182 168 167 169 171 174 175 175 175 181 177 182 185 186 190 178 166 155 173 180 222 214 228 222 282 309 284 269 252 258 269 280 284 287 287 288 285 277 277 289 289 285 280 281 281 283 284 286 281 268 253 221 222 241 243 229 226 225 226 224 220 215 211 215 206 227 242
281 271 197 201 156 157 159 165 173 174 175 177 180 175 175 180 179 180 182 171 171 170 172 174 176 175 173 182 183 184 187 188 194 170 164 165 178 203 204 217 215 217 224 247 281 284 274 264 254 252 244 249 257 261 273 280 285 283 284 288 291 294 294 290 283 280 281 285 276 254 223 220 232 242 234 227 227 220 218 219 217 214 205 221 221
256 269 258 219 167 158 162 168 175 175 175 175 176 166 162 172 181 181 183 177 174 170 171 171 173 171 174 180 181 180 185 186 187 181 169 191 201 203 211 213 223 255 263 256 251 250 251 269 283 286 283 277 270 267 275 288 291 289 286 283 283 286 282 277 279 281 280 276 272 272 254 233 222 229 233 230 228 224 218 218 223 213 215 220 223
224 243 248 230 215 182 162 163 173 173 178 176 171 157 159 169 175 182 184 179 167 166 169 172 173 168 171 176 182 183 185 184 184 184 189 199 208 210 218 227 225 238 248 251 250 256 264 275 278 282 277 273 274 273 261 261 266 267 275 278 280 284 284 281 276 269 274 274 273 268 263 248 229 229 231 229 233 228 220 221 219 217 218 215 218
201 227 255 241 208 198 158 165 178 181 178 182 159 161 165 171 176 180 180 181 169 166 169 170 169 170 171 178 181 181 185 182 184 187 194 206 210 215 222 221 230 232 235 238 239 257 271 266 271 276 283 286 287 284 285 277 279 283 274 268 272 278 278 278 281 280 273 274 277 276 275 270 245 226 224 226 229 231 230 229 225 220 218 212 210
178 191 255 270 216 181 163 169 184 192 178 167 165 167 170 170 176 178 176 182 169 167 172 170 169 173 175 178 179 181 182 184 185 183 200 207 213 223 221 230 237 243 242 261 271 268 260 262 264 264 265 275 275 278 284 289 274 265 272 280 276 270 271 274 277 276 279 280 280 281 278 273 273 255 225 224 221 223 226 228 232 222 221 219 208
200 199 226 261 260 200 189 186 199 172 152 159 161 172 172 171 172 173 177 182 172 171 173 169 170 173 175 176 174 179 178 185 185 191 202 208 215 220 219 227 237 248 250 247 253 264 274 276 275 272 270 266 273 279 279 277 277 276 274 270 270 271 269 270 272 274 274 275 277 278 281 282 270 267 250 228 226 226 224 227 232 228 225 225 215
284 274 248 252 260 246 214 197 204 155 167 155 164 169 163 171 173 177 181 179 169 170 171 171 170 171 169 174 177 176 180 186 193 198 207 212 216 222 227 236 245 255 267 270 264 264 267 272 279 281 284 285 281 279 276 269 270 270 271 274 274 272 268 263 263 267 269 269 267 271 273 280 289 285 274 260 229 223 222 225 229 227 228 230 237
327 299 272 247 244 248 237 217 207 170 163 160 170 172 168 171 177 176 180 176 168 168 172 174 175 171 170 177 179 181 183 185 191 195 209 212 220 226 232 246 254 262 272 280 277 274 270 270 273 277 275 273 275 275 273 271 265 263 264 263 262 265 270 272 268 267 269 269 269 265 267 271 274 278 285 281 267 231 221 225 224 225 228 233 230
302 288 277 266 255 244 243 243 230 206 162 169 173 176 170 173 179 175 173 172 164 165 173 173 171 171 171 178 179 184 186 187 193 200 211 218 224 232 241 253 264 271 274 274 278 277 278 277 273 272 275 279 277 274 272 271 272 271 271 270 270 267 264 267 269 268 264 264 267 268 265 261 264 265 265 272 280 272 243 224 223 225 228 226 226
293 295 292 296 270 255 253 252 245 220 165 174 179 180 175 174 178 174 172 170 163 167 173 171 167 170 172 179 182 183 186 188 189 196 200 209 217 230 248 252 260 280 287 290 284 284 287 290 290 288 281 274 275 273 274 274 274 272 268 268 268 268 269 267 266 267 267 265 264 267 271 269 264 261 264 262 265 274 274 263 237 229 222 230 239
264 254 264 262 315 299 261 241 246 236 192 177 176 178 178 175 176 172 172 168 163 168 170 169 166 168 174 176 180 182 182 185 183 186 199 203 225 236 235 261 289 281 280 279 287 295 292 289 285 282 284 286 282 283 281 282 283 279 274 268 267 266 265 265 265 266 268 269 268 267 267 268 267 267 262 263 260 260 270 273 265 241 232 227 230
270 265 258 266 275 293 286 258 246 242 224 162 183 182 174 165 169 171 168 166 160 165 167 170 168 167 171 172 169 176 171 175 179 192 197 210 218 225 268 283 273 276 275 280 290 290 289 290 292 290 285 279 275 268 265 266 266 268 269 271 267 264 264 265 265 264 264 263 264 266 267 266 268 269 271 269 268 271 271 272 272 288 281 251 239
273 266 260 258 248 236 255 299 320 326 290 220 185 177 169 157 168 169 161 163 160 164 167 171 167 165 161 169 166 161 171 173 184 195 202 205 207 233 247 249 250 255 266 280 281 283 292 294 291 289 286 284 279 276 271 265 263 269 274 275 277 280 282 280 274 269 264 263 263 263 264 265 266 269 273 275 273 270 265 256 259 264 263 271 267
277 268 256 245 246 245 189 137 85 17 350 319 233 180 157 161 169 162 163 164 166 165 170 167 169 164 164 172 171 171 177 187 194 200 190 199 227 223 231 249 266 270 275 277 282 302 303 300 296 294 290 286 284 281 278 274 272 267 268 270 268 267 263 269 277 284 286 281 271 264 263 264 264 262 261 263 266 264 261 265 261 251 250 247 260
305 306 303 285 251 210 196 180 149 106 280 273 274 212 143 162 168 164 165 166 163 171 168 169 167 163 165 175 173 179 186 195 192 195 200 225 234 249 263 270 273 274 269 272 304 297 290 289 286 287 286 285 284 285 286 285 283 281 273 270 271 269 266 261 259 261 268 275 276 277 272 268 264 264 266 263 258 252 253 255 259 261 252 246 232
298 298 316 317 315 289 197 162 155 139 203 237 227 230 167 171 161 158 160 166 160 168 171 166 170 164 167 172 174 184 190 189 189 205 222 233 243 246 256 261 263 274 286 299 304 299 293 291 289 287 286 286 286 287 290 292 293 290 286 277 267 268 270 265 261 259 259 263 269 271 273 272 271 266 260 258 262 268 254 241 244 253 258 253 248
289 294 302 312 306 312 266 220 178 171 160 162 202 216 191 163 150 162 160 169 166 169 171 165 168 168 165 172 177 179 191 186 196 216 226 231 238 248 257 258 266 268 292 321 304 297 294 289 286 285 283 283 280 286 288 290 291 291 289 281 271 267 271 268 267 264 260 260 260 263 266 268 268 271 268 264 260 255 260 257 241 239 246 253 249
283 277 287 297 301 308 295 247 207 160 154 150 227 218 166 157 151 165 160 165 164 170 169 162 167 164 158 161 181 180 188 200 214 221 227 248 257 259 256 266 275 9 341 303 298 299 294 288 286 282 279 275 272 268 265 266 267 268 271 276 274 270 268 267 267 265 263 261 261 260 261 262 264 264 266 272 271 265 259 254 251 240 235 239 245
311 300 292 278 271 276 296 273 202 162 145 159 199 196 184 158 155 166 160 162 159 167 170 154 150 145 156 161 187 186 191 218 224 237 236 237 248 251 261 269 287 309 292 310 305 296 291 291 289 290 288 285 284 282 279 278 275 271 269 269 271 267 267 268 267 264 263 261 260 258 258 257 256 258 261 267 274 280 283 284 277 262 246 237 236
296 285 268 264 250 240 251 273 237 180 176 183 174 165 170 158 155 175 157 162 168 171 168 153 166 159 161 177 192 207 216 221 235 244 244 245 241 256 299 340 339 340 321 309 303 297 301 297 295 291 290 290 291 288 288 289 291 290 285 280 272 270 267 268 266 266 264 262 260 258 258 258 255 254 255 259 267 277 275 273 272 276 278 261 243
293 284 273 271 263 231 201 230 235 201 165 125 139 150 158 166 162 162 154 168 178 163 162 167 147 160 162 165 206 226 236 229 239 248 265 293 340 342 312 352 336 329 321 321 312 304 298 297 295 296 295 295 295 295 295 294 292 291 286 284 274 271 270 268 268 266 266 263 259 256 256 257 256 254 250 252 257 263 267 268 271 272 271 272 260
297 294 293 335 360 303 219 191 177 121 107 137 181 164 161 165 151 152 159 168 164 153 164 158 167 169 130 183 195 228 253 282 285 288 324 329 326 308 305 304 338 355 331 317 310 306 301 298 299 299 301 297 293 294 291 290 286 282 282 281 272 266 269 267 267 267 262 260 259 255 251 250 251 254 252 249 252 256 261 265 271 270 266 265 267
320 325 125 30 57 26 335 22 85 79 154 178 170 162 162 151 148 152 163 157 157 190 149 72 74 86 107 208 190 219 226 235 276 333 334 312 302 307 295 336 30 342 324 324 316 307 303 302 300 298 295 293 294 294 294 291 292 292 288 286 279 270 267 267 263 262 262 256 256 254 250 245 245 245 246 246 248 248 256 263 266 268 274 267 283
322 316 311 144 98 349 239 175 249 188 199 163 193 149 152 137 144 155 151 162 118 86 87 94 92 111 184 210 211 205 23 25 347 321 316 305 292 287 5 29 357 330 324 318 306 301 298 299 299 299 298 296 295 294 293 293 293 292 290 289 286 276 268 264 262 258 255 257 254 252 253 249 244 239 235 237 238 242 246 254 257 248 250 271 312
325 342 333 7 21 234 273 204 207 198 186 188 181 135 139 134 140 152 136 96 97 98 85 98 130 189 203 192 58 50 57 346 282 266 268 265 265 282 110 84 353 326 328 317 310 304 301 298 298 296 293 294 296 296 296 294 290 287 284 281 283 281 274 267 264 257 255 253 252 254 254 250 247 242 234 230 232 235 239 240 250 252 257 263 271
335 346 0 1 331 266 255 233 205 213 192 186 141 131 134 131 145 142 110 116 129 110 114 148 172 190 165 213 185 200 202 217 233 251 256 273 270 264 98 76 353 345 324 320 314 312 307 304 300 295 294 294 294 292 289 289 288 285 284 283 282 283 280 272 266 262 258 256 253 253 252 250 247 244 237 230 228 232 235 237 242 249 251 251 252
355 319 319 273 276 230 247 250 90 267 197 172 131 135 136 145 139 98 89 80 74 82 126 136 128 213 208 207 235 228 78 237 274 295 299 280 271 347 56 17 7 343 321 301 296 295 295 297 299 298 296 292 290 291 290 289 289 287 285 284 283 282 280 275 271 265 262 255 252 249 250 251 247 241 237 234 233 234 235 237 237 240 243 240 229
327 284 261 245 239 241 217 188 173 236 203 153 133 135 140 132 102 104 105 107 108 112 109 174 202 193 125 219 141 34 296 343 353 321 287 269 260 82 341 35 356 298 293 292 294 299 303 305 301 297 295 293 294 294 293 290 288 286 285 285 284 282 280 277 272 267 259 257 251 250 248 248 247 240 233 233 235 236 234 233 234 235 234 214 216
280 268 255 248 241 220 189 142 203 202 188 144 129 139 134 109 111 113 122 131 124 144 156 228 126 79 122 316 40 22 25 356 280 265 283 295 318 51 317 200 278 302 308 311 309 308 302 299 300 298 296 298 298 297 295 294 292 291 291 289 289 287 282 277 270 265 262 258 253 248 245 243 245 241 236 238 241 242 239 235 236 235 217 212 201
277 278 242 229 257 209 170 168 176 227 182 146 145 162 119 118 122 128 124 121 137 160 148 169 140 182 114 49 105 69 307 255 343 4 325 314 326 353 35 32 13 323 323 308 302 305 301 297 298 298 299 301 298 296 295 295 295 295 296 294 290 286 280 276 270 264 259 254 250 246 240 235 234 238 238 245 257 257 252 241 235 221 209 202 193
274 255 243 258 249 219 194 208 138 215 200 137 151 139 121 119 116 113 112 126 129 147 177 146 160 102 50 19 13 172 207 14 359 333 344 345 351 30 359 14 73 30 315 302 306 305 304 302 301 302 301 298 296 295 295 298 301 300 297 293 290 286 282 274 271 265 259 254 250 240 232 228 233 241 247 254 257 261 255 243 222 203 199 190 185
273 249 231 244 248 247 177 177 115 124 270 129 172 129 119 117 122 134 130 124 110 120 92 163 182 108 104 21 6 328 56 33 348 356 3 7 25 345 24 76 106 77 278 295 317 306 299 297 298 301 302 297 295 295 297 300 297 297 296 295 296 292 289 283 268 264 264 258 239 226 211 215 219 229 237 242 248 245 240 218 197 186 180 170 156
235 256 245 259 228 349 158 149 125 203 166 132 120 105 117 127 134 131 125 128 134 161 209 180 174 127 93 39 13 309 36 30 2 13 3 7 89 60 123 133 112 159 226 247 246 296 299 303 299 296 295 298 298 296 299 301 303 304 303 300 296 294 299 297 280 265 258 248 215 208 207 208 210 212 220 224 223 210 206 196 187 165 156 154 147
272 252 214 190 114 343 87 107 109 307 96 127 118 123 130 133 126 122 130 135 175 208 206 161 121 93 107 135 246 344 32 16 27 36 8 354 323 141 63 143 159 196 237 18 356 293 286 283 294 305 302 294 292 298 304 308 309 311 309 307 303 307 316 319 310 283 247 209 203 193 195 191 200 201 206 210 197 189 181 158 145 146 154 150 144